STARLINK-33837, 63501

Orbit data source: Space-Track

STARLINK-33837, 63501 is a payload satellite owned by SpaceX/Seattle (US) in LEO that was launched on Mon, 07 Apr 2025 UTC via an FALCON 9 launch vehicle from the Air Force Western Test Range (AFWTR). Payload-class satellites include a variety of spacecraft equipped with specific instruments for various scientific and technological missions. These include communications satellites like Starlink; space stations such as the ISS; scientific satellites like the Hubble; Earth observation satellites from companies like Planet Labs, Umbra, and HawkEye 360; GPS; miniature CubeSats for education and research; and military/defense satellites.

Loading next visibility...
Identifier
63501, 2025-071J
Orbit
LEO
Country
Flag of USUS
Related business
Manufacturer
SpaceX/Seattle
Mission
Operational Commercial Communications
Bus & Motor
STARLINK V2MO, Unknown motor
Mass
575 kg wet, ~530 kg dry
Launch date (UTC)
2025-04-07 (5 months ago)
Launch vehicle
FALCON 9
Launch site
Air Force Western Test Range (AFWTR)
Object type
Payload
Rocket body
Debris
Shape & HBR
Box + 1 Pan, 14.5 m
Radar Cross Section
41.120 m², Large (>1 m²)

Expand to show TLE details & history
Last TLE update: 22 hours ago

TLE from 22 hours ago
0 STARLINK-33837
1 63501U 25071J   25257.32472580  .00011081  00000-0  38556-3 0  9993
2 63501  53.1571 239.4050 0000957 102.2373 257.8735 15.30211635 25709
Epoch: 2025-09-14T07:47Z
TLE epoch observation values (Epoch: 2025-09-14T07:47:36.309Z)
Latitude
Longitude
128.95835°
Altitude
476.218 km
Speed
7.629 km/s
True Right ascension
15h 57m 37s
True Declination
0° 00' 00"
Sunlit
Object was in daylight at epoch
Visualization orbit readout
Latitude
Unknown
Longitude
Unknown
Altitude
Unknown
Speed
Unknown
Apparent Right ascension
Unknown
Apparent Declination
Unknown
Sunlit
N/A
Visualization observer readout
Local Sidereal Time
22:06:06
Azimuth
Unknown
Elevation
Unknown
Doppler factor
Unknown
Orbital elements
Apogee altitude
476.093 km
Perigee altitude
474.781 km
Semi-major axis
6,853.574 km
Eccentricity
0.0001
Inclination
53.1571°
RAAN
239.405°
Arg. of periapsis
102.2373°
True anomaly
257.86278°
Mean anomaly
257.8735°
Eccentric anomaly
257.86814°
Mean motion
3.82532 °/min
Orbital period
94.11 mins
BSTAR
0.00038556
Loading maneuver chart data...
Computing Atmospheric mass density...
Loading historical data...
Loading historical data...
Loading historical data...
Loading historical data...
Loading historical data...
Loading historical data...
Loading historical data...

Documentation

Showing up to 5 results
|